Theta_e
317 316 316 318 320 323 326 324 320 321 320 313 315 316 317 320 321 321 320 320 319 316 315 315 315 316 318 319 320 320 319 319 320 317 318 326 324 318 322 322 320 323 324 330 337 339 337 337 340 340 341 341 341 340 340 340 339 339 338 338 338 338 338 337 339 338 339 340 341 341 341 341 340 339 339 339 339 339 339 338 338 338 339 340 340 340 340 339 338 337 337 337 336 336 334 333 332
318 318 319 322 322 323 325 323 318 317 316 311 314 316 316 320 320 320 320 319 319 316 314 315 315 316 317 317 318 319 320 319 320 320 322 323 322 322 321 321 321 321 325 330 337 339 339 339 339 340 341 341 341 340 340 340 340 339 338 338 338 338 338 337 339 339 340 341 341 341 341 341 340 339 338 338 337 338 337 337 337 337 339 339 339 339 338 337 336 336 337 336 335 335 333 332 330
320 322 323 324 324 324 324 322 316 313 313 310 312 317 317 318 319 319 318 318 317 313 313 316 315 316 316 318 318 319 320 319 319 319 321 321 324 327 322 321 319 322 326 330 337 339 341 340 339 340 340 341 341 341 340 340 340 339 338 338 338 338 338 339 340 340 340 341 341 341 341 340 339 338 337 336 336 336 336 336 337 337 338 338 338 337 336 336 336 336 336 335 334 333 331 328 327
322 323 324 325 324 324 323 322 318 313 311 310 311 317 319 317 319 318 318 317 316 312 314 317 316 316 317 319 319 318 319 319 321 320 323 323 326 329 323 322 318 322 327 330 337 339 341 340 339 340 341 341 340 341 340 340 340 339 338 339 339 337 338 340 341 341 341 341 341 341 340 339 338 337 336 335 334 334 334 335 336 336 336 336 335 335 334 334 334 335 334 334 333 331 328 325 323
322 321 322 325 323 322 322 321 320 315 311 312 311 315 319 317 318 318 318 318 315 313 314 317 318 317 316 318 318 318 320 320 321 319 324 324 323 325 323 323 319 322 328 332 336 339 340 340 340 340 341 341 340 341 340 340 340 339 339 339 339 337 338 341 341 341 340 341 341 340 339 338 337 336 335 334 332 332 333 333 334 334 334 333 332 332 331 331 332 333 333 332 330 327 324 321 318
323 321 321 323 321 321 321 318 317 315 316 317 314 316 318 317 318 317 318 318 315 313 313 316 317 316 316 317 317 319 321 320 321 320 321 323 321 324 325 323 320 323 330 334 337 338 339 340 340 340 341 340 340 341 340 340 339 339 338 338 339 337 338 340 340 340 340 340 340 339 338 337 336 335 334 333 331 331 332 332 332 332 332 331 330 330 329 329 330 330 329 327 325 321 317 313 310
324 323 321 321 320 320 319 316 315 316 319 319 317 317 317 317 319 317 318 317 315 314 313 315 314 315 317 316 316 318 318 317 321 321 320 321 321 323 325 323 321 323 331 335 336 337 338 340 339 340 340 340 340 340 340 339 339 339 338 338 338 338 339 340 340 340 340 339 338 337 336 335 334 333 333 331 330 329 330 331 331 331 330 329 328 328 328 327 326 325 322 319 315 310 307 304 302
322 323 321 320 321 321 319 317 317 319 318 318 318 318 317 318 318 317 318 318 317 316 314 314 313 316 317 314 316 318 315 315 318 319 318 320 320 323 325 324 322 324 332 334 335 337 338 339 339 340 340 340 341 340 340 339 339 339 338 338 338 339 339 339 339 339 339 338 337 336 335 334 332 332 331 329 328 328 328 329 329 328 328 328 327 327 326 324 320 316 312 308 305 302 301 300 300
320 320 321 320 319 319 317 316 318 319 319 318 318 318 318 318 317 317 317 318 317 316 315 315 314 317 317 314 317 319 316 315 315 315 317 318 319 322 325 325 323 325 330 333 335 337 338 340 339 339 340 340 340 340 340 339 339 338 338 338 338 339 338 339 338 338 338 337 336 334 334 333 331 329 329 328 327 327 327 327 327 327 327 326 326 325 322 318 313 308 304 301 300 299 299 299 299
319 319 320 320 317 315 314 315 316 318 318 317 317 316 317 316 315 316 317 318 317 317 315 312 313 316 317 316 317 319 318 315 313 315 315 317 318 321 326 325 325 325 327 331 334 336 338 339 338 339 340 339 339 339 339 338 339 338 338 338 338 338 338 338 337 337 336 335 334 333 332 331 330 328 327 327 325 326 326 326 326 325 325 325 323 320 315 312 309 305 301 299 299 299 299 299 299
320 319 319 318 315 312 312 313 316 318 317 317 317 316 316 315 315 316 316 317 316 316 314 311 314 316 316 316 318 318 315 314 314 316 315 316 318 320 326 326 326 326 326 330 333 335 337 338 338 339 339 339 339 339 338 338 338 337 337 337 337 337 337 337 336 336 335 334 332 331 330 330 330 327 327 325 323 325 325 325 324 324 324 322 319 314 311 308 306 302 299 299 299 299 299 299 298
320 320 318 317 315 313 314 314 316 318 319 319 319 317 315 314 315 317 317 317 316 316 315 314 315 316 316 317 319 317 314 314 314 315 315 316 317 319 325 327 327 327 328 331 333 335 337 338 338 339 339 339 338 338 337 337 337 336 336 335 336 335 335 335 334 334 333 332 330 329 329 328 328 327 327 324 323 324 323 323 323 322 321 318 314 311 310 307 303 300 298 299 298 298 298 298 298
320 321 318 316 317 317 317 316 317 319 319 320 319 315 312 314 317 317 317 317 316 317 316 315 315 315 317 318 319 317 316 315 313 314 315 316 317 319 324 327 327 328 329 331 333 335 336 337 337 338 338 338 337 337 336 336 335 334 334 333 333 332 333 333 332 331 331 330 329 329 328 327 327 326 325 322 322 321 319 320 318 318 317 313 312 310 308 305 302 299 298 299 298 298 298 298 298
320 320 318 317 318 319 317 316 318 318 316 318 317 312 311 315 316 315 316 316 316 317 315 313 314 315 317 318 318 318 318 314 313 314 315 316 317 318 323 326 327 328 328 330 332 335 335 336 336 337 337 337 336 336 335 334 334 333 333 331 332 331 331 332 330 329 329 328 328 327 327 327 325 325 323 320 321 318 316 316 313 315 315 311 310 308 305 302 299 299 298 298 298 298 298 298 298
319 319 319 319 318 318 318 318 319 317 316 318 315 311 312 314 314 314 315 316 317 314 312 312 313 315 318 317 318 319 316 312 313 314 315 316 316 319 323 326 328 328 329 329 331 334 334 335 335 335 336 336 335 335 334 334 334 333 332 330 331 331 330 330 329 328 328 327 327 326 326 326 325 324 321 318 319 316 314 314 313 314 313 310 309 305 302 299 298 298 298 298 298 298 298 298 298
318 320 319 319 318 317 318 318 318 316 317 318 313 310 314 314 312 313 313 313 315 314 312 313 312 314 317 317 318 317 312 312 313 314 315 317 318 320 323 325 327 328 329 329 331 332 333 334 335 335 335 335 335 334 334 334 333 332 331 330 329 330 329 329 328 327 327 326 326 326 325 325 324 322 319 317 317 314 312 312 313 314 311 308 306 302 299 298 298 298 298 298 298 298 299 299 299
317 320 319 317 316 317 318 318 317 316 317 317 313 311 315 315 311 311 310 309 314 315 313 313 313 313 315 316 316 313 311 312 313 315 318 319 321 322 323 324 326 327 328 329 330 331 332 334 334 334 334 334 334 333 333 333 332 331 330 329 328 328 328 328 327 327 326 325 325 325 325 324 323 321 318 317 316 313 311 309 311 313 309 305 303 300 298 297 297 297 297 298 298 299 299 299 299
318 320 318 316 317 318 318 319 317 315 316 316 315 312 314 315 314 312 311 311 313 314 314 314 313 313 314 315 313 311 311 312 313 317 321 323 324 324 324 324 325 327 327 328 329 330 330 331 332 333 332 333 333 332 332 332 330 329 328 327 327 327 327 327 326 326 325 325 324 324 324 323 322 321 319 318 316 313 310 308 308 311 308 303 301 299 297 297 297 297 298 298 299 299 299 299 299
319 320 318 316 319 318 316 317 316 315 315 316 315 312 312 314 314 313 313 315 314 314 315 315 314 314 314 315 313 311 311 313 315 318 322 324 324 325 325 325 325 326 327 327 328 329 330 330 330 331 331 331 332 331 331 330 329 327 327 328 327 326 326 327 326 326 325 324 324 323 323 322 321 320 318 315 314 312 309 307 307 309 307 302 299 298 297 297 297 298 298 299 299 299 299 299 299
319 318 318 318 320 318 315 315 315 315 315 315 316 313 312 313 313 312 313 315 315 315 316 316 316 316 316 315 315 313 312 314 316 317 320 321 323 324 325 326 326 325 326 327 327 327 328 329 329 329 329 329 329 329 328 328 327 327 328 328 327 326 326 326 325 325 325 324 324 323 323 321 318 317 314 309 310 310 310 309 308 308 306 302 299 297 296 297 298 298 298 299 299 299 299 299 298
318 317 318 319 318 317 316 315 314 315 313 313 314 313 313 313 311 312 313 315 315 316 316 317 316 316 316 316 316 315 313 314 315 316 318 319 321 322 323 325 325 324 324 326 326 326 327 327 327 327 327 327 327 327 327 327 327 327 328 327 327 326 326 326 325 325 324 324 323 322 321 317 314 314 311 309 311 312 312 311 310 310 307 303 299 297 297 297 298 298 298 298 298 298 298 298 298
317 317 318 319 316 316 317 316 315 313 311 312 313 313 314 312 311 312 313 314 316 316 316 317 316 316 316 315 315 315 314 314 315 316 317 318 319 320 321 322 323 323 323 324 324 324 325 326 326 326 325 326 326 326 326 326 326 327 327 326 325 325 325 325 325 325 324 324 322 321 319 315 314 314 311 310 312 313 313 312 311 310 306 302 298 297 297 298 298 298 298 298 298 298 298 298 297
316 317 317 318 317 316 317 316 314 312 311 313 314 314 313 312 313 313 313 314 316 316 316 316 316 316 316 314 314 314 314 314 315 316 317 317 318 319 319 320 321 322 321 321 322 323 324 324 325 325 324 325 325 326 326 326 326 326 326 325 324 324 325 324 324 324 324 324 322 319 317 315 314 313 311 310 310 310 311 310 309 307 303 300 297 297 297 297 297 297 298 298 298 298 298 297 297
315 317 316 317 316 316 316 315 314 312 313 314 314 314 313 314 316 314 313 314 315 315 315 315 316 316 315 313 312 312 313 314 315 315 316 316 317 317 317 318 319 319 320 319 320 322 322 323 324 324 324 323 324 325 326 326 326 325 325 324 322 322 322 323 324 324 324 323 321 318 316 315 313 311 310 308 307 307 307 306 304 303 301 299 297 296 296 297 297 298 298 298 298 297 297 297 296
315 316 316 315 314 315 315 314 313 313 313 314 313 313 315 316 315 313 313 314 314 314 314 314 315 315 314 312 312 312 312 314 315 315 315 315 315 315 316 316 317 318 318 318 319 319 320 321 322 323 323 322 323 323 324 325 325 324 324 324 322 320 321 322 322 323 323 322 320 318 316 313 311 309 308 307 306 305 304 303 302 301 300 298 297 296 296 297 297 298 298 297 297 297 297 296 296
315 316 316 315 314 314 314 312 312 312 313 313 312 313 315 314 313 313 314 314 314 314 314 314 314 314 313 312 312 311 312 313 314 314 314 314 313 314 314 315 316 316 316 316 317 317 318 319 320 322 323 322 322 322 323 323 323 323 323 323 320 319 320 321 321 321 322 322 319 316 314 312 309 307 306 305 304 303 302 301 301 300 298 297 296 296 296 297 297 298 298 297 297 296 296 295 295
312 313 313 313 313 313 312 311 312 312 311 312 312 313 314 313 311 313 314 313 313 313 313 313 313 312 312 312 311 311 311 312 313 313 313 313 313 313 313 314 314 313 314 315 315 315 316 317 318 319 321 322 321 321 322 322 322 322 322 322 320 319 320 320 320 321 321 321 318 314 312 310 308 306 305 304 302 302 301 300 300 299 297 297 296 296 297 297 297 297 297 297 296 296 295 295 294
310 310 311 312 312 312 311 310 311 311 311 310 311 312 313 312 310 312 313 312 312 312 312 313 313 312 312 312 312 312 311 312 312 312 312 313 313 313 313 313 312 312 312 313 313 314 315 315 316 317 319 321 321 321 321 321 322 321 321 321 319 319 320 319 319 321 321 320 318 313 311 309 307 306 304 302 301 301 300 299 299 298 297 296 296 296 296 297 297 297 297 296 296 295 295 294 294
309 309 311 312 312 313 313 312 311 310 310 309 310 311 312 312 312 313 313 312 311 311 311 312 312 313 312 313 312 312 312 312 311 311 311 311 312 313 313 312 311 312 312 311 312 313 313 314 315 316 317 319 320 320 320 320 321 321 321 320 319 319 319 318 318 320 320 319 317 313 310 308 306 305 303 302 301 300 298 298 297 297 296 296 296 296 296 297 296 296 296 295 295 294 294 293 293
310 310 310 312 312 313 313 312 309 309 310 309 310 310 312 314 313 314 313 311 310 310 311 312 312 313 312 312 311 311 312 312 312 312 311 311 311 311 311 311 310 310 311 311 311 311 312 312 313 314 315 317 318 319 320 320 320 320 320 319 319 318 318 317 317 319 319 318 316 313 311 308 305 304 303 301 300 299 297 297 297 296 296 295 295 296 296 296 296 296 295 294 294 293 293 293 292
311 310 310 311 312 313 313 311 308 309 309 308 310 310 311 313 314 314 312 309 309 310 310 311 312 312 312 312 311 311 312 312 312 312 312 311 310 310 309 310 309 309 310 310 310 310 311 311 312 313 314 315 316 318 319 320 320 319 319 319 318 318 318 317 318 319 318 317 316 314 311 308 306 304 302 301 299 298 297 296 296 296 296 295 295 295 295 295 295 295 294 294 293 292 292 292 292
311 311 312 313 312 313 313 311 309 310 309 307 309 311 312 313 313 314 311 308 308 309 310 311 311 311 311 311 311 311 311 312 312 312 312 311 309 309 309 308 308 309 309 309 309 310 310 310 311 311 312 313 314 316 317 319 319 319 319 319 318 318 318 318 317 318 317 317 316 314 311 308 306 304 301 300 299 297 296 296 296 295 296 295 295 295 295 295 295 295 294 293 293 292 292 291 291
312 311 313 314 313 313 313 312 312 311 309 308 309 310 312 312 313 313 311 309 309 309 311 311 311 311 311 311 311 311 311 312 312 312 311 311 310 309 308 308 308 308 308 308 308 309 309 309 310 310 310 311 313 314 315 317 318 318 318 318 318 318 317 317 317 317 316 316 315 314 311 309 306 303 301 300 299 297 296 296 296 296 295 295 295 295 295 295 295 295 294 293 292 292 291 291 291
313 313 313 313 313 312 311 313 312 309 309 309 309 309 310 311 312 312 311 311 310 310 311 311 311 311 312 312 312 312 311 311 311 311 311 310 310 309 308 308 308 308 308 308 308 308 308 309 309 309 309 310 311 313 314 315 316 316 317 316 316 316 316 316 316 315 315 315 314 313 311 309 306 304 302 300 299 296 296 295 295 295 295 294 294 294 294 294 295 294 293 292 292 292 291 291 291
314 314 314 313 312 311 311 312 311 310 309 310 310 309 310 310 311 311 311 311 310 311 311 311 311 311 312 312 312 312 312 311 311 311 311 311 310 310 309 308 307 307 307 307 307 307 308 308 308 308 308 309 309 311 312 313 314 315 314 315 315 315 314 314 314 314 314 314 314 313 312 309 307 304 302 300 298 296 295 295 295 295 295 294 294 294 294 294 294 294 292 292 291 291 292 291 291
313 313 312 312 312 311 311 312 311 310 309 309 310 310 311 311 311 311 311 311 311 311 311 311 311 312 312 312 312 313 312 312 312 311 311 310 310 309 309 308 307 307 306 306 306 306 307 307 307 307 307 307 308 310 311 312 313 313 313 313 313 313 313 313 313 313 312 312 313 313 312 310 308 305 303 301 298 296 295 295 295 295 294 293 293 293 293 294 294 293 292 291 291 291 291 291 290
311 311 312 312 312 312 312 312 312 309 308 310 310 311 311 311 312 311 311 311 312 311 311 312 312 312 312 313 314 313 312 312 312 312 312 310 309 309 308 307 307 307 306 306 305 306 306 307 307 307 306 306 307 308 310 311 312 312 312 311 311 311 311 311 311 311 311 311 311 311 311 309 308 306 304 301 298 296 295 295 295 294 294 293 293 293 294 294 294 293 292 291 291 290 290 290 290
311 312 312 313 313 313 312 312 312 309 308 310 310 311 311 311 311 311 311 311 311 312 312 312 312 312 313 314 314 313 312 312 312 313 312 311 310 308 307 307 306 307 307 306 305 305 305 306 306 306 306 306 306 306 308 309 310 311 311 311 310 310 309 309 309 309 309 309 309 309 308 308 307 305 304 301 298 295 294 294 294 294 293 293 293 293 293 294 294 293 292 290 290 290 290 290 290
311 312 312 313 313 313 312 312 311 308 308 310 310 310 311 310 311 311 312 312 312 312 312 312 313 313 314 313 312 312 311 312 312 312 312 312 310 309 308 307 307 306 306 306 305 305 305 305 305 306 306 305 305 305 306 307 308 309 309 309 309 308 308 307 307 307 307 307 306 306 306 306 305 304 303 301 297 295 295 294 294 294 293 293 293 293 293 293 293 292 292 291 290 291 291 290 289
311 312 312 313 313 313 313 311 310 308 308 310 310 310 311 312 312 312 312 312 312 312 312 313 313 313 313 312 311 311 311 312 313 312 312 312 312 311 309 308 306 306 306 305 305 305 304 305 305 305 305 305 304 304 305 305 306 306 307 307 307 306 306 305 305 305 305 304 304 304 304 304 303 302 301 300 297 295 295 294 294 294 293 293 293 293 293 292 293 292 292 291 290 291 292 290 289
313 313 313 313 313 313 312 312 310 309 310 309 309 312 313 314 314 314 313 311 311 312 312 312 313 313 312 312 311 311 312 313 312 312 311 311 311 311 310 308 307 307 307 305 304 304 304 304 304 304 305 305 304 304 304 304 304 305 305 305 305 304 304 303 303 303 303 303 303 302 303 303 302 301 300 299 297 296 295 294 294 294 294 293 292 292 293 293 293 292 292 291 290 291 292 291 290
314 314 313 312 312 312 312 313 311 311 313 310 310 313 314 314 315 315 314 313 313 313 313 313 313 313 312 311 311 311 312 312 311 311 311 311 311 311 310 309 308 308 306 304 304 303 303 304 303 304 304 304 304 303 303 303 303 304 304 304 304 303 303 303 302 302 302 302 302 302 302 302 302 301 300 299 297 296 295 294 294 294 294 293 292 292 292 292 293 292 292 292 291 291 292 292 291
313 315 313 311 311 312 312 313 312 312 314 310 309 313 315 314 314 314 315 315 314 315 315 315 314 312 311 311 310 311 312 311 311 311 310 310 310 309 309 308 307 306 304 303 304 303 303 303 303 303 303 304 303 303 303 302 303 303 303 303 304 304 304 303 302 302 302 301 301 301 300 300 300 300 300 298 297 296 295 294 294 294 294 293 293 292 292 292 292 293 293 293 292 292 293 293 292
314 315 313 313 312 313 313 312 311 312 312 311 310 312 314 315 314 314 314 314 314 316 316 316 314 312 310 310 310 311 311 311 311 311 309 308 308 307 307 307 306 304 302 302 302 302 302 302 302 302 303 303 303 302 302 302 302 303 303 303 303 303 304 304 303 301 301 300 300 299 299 298 298 298 298 297 297 296 295 294 294 294 294 293 293 292 292 292 292 293 293 293 292 291 292 293 293
314 312 309 310 311 311 311 311 311 311 311 312 313 312 315 316 314 312 312 313 315 316 316 315 313 311 310 310 310 310 310 309 309 308 307 306 306 306 306 305 304 303 302 301 301 301 301 301 302 302 302 302 302 302 302 301 302 302 302 303 303 303 303 303 303 301 300 300 299 298 298 298 297 297 297 296 296 296 295 295 294 294 293 293 293 292 292 292 292 292 292 292 292 291 291 293 294
311 309 309 310 310 310 310 311 311 311 312 315 314 313 316 318 316 313 312 313 315 316 315 313 312 310 309 309 309 309 308 308 307 305 305 305 304 304 304 303 302 302 301 300 300 300 300 300 300 301 301 301 301 301 301 301 301 301 302 302 302 303 303 302 302 301 300 300 299 298 298 297 297 296 296 296 295 295 295 295 294 294 294 293 293 293 292 292 292 292 292 292 292 292 291 292 293
309 310 311 312 311 309 309 310 310 312 315 316 315 314 316 318 317 315 314 313 313 314 313 313 311 309 309 308 307 307 305 305 305 304 303 303 303 302 302 301 301 300 300 299 299 299 299 299 300 300 300 299 300 300 300 300 301 301 301 302 302 302 302 302 302 301 301 300 299 298 298 297 296 296 295 295 295 295 295 294 294 294 294 293 293 293 292 292 292 292 292 292 292 292 291 291 292
310 311 311 312 312 311 311 311 311 315 319 317 313 314 316 317 317 314 313 313 312 311 312 313 311 309 308 306 305 304 303 303 302 301 301 301 300 300 300 300 300 299 299 299 298 298 299 299 299 300 299 298 298 298 299 300 300 300 300 301 301 301 302 302 302 302 301 300 299 299 298 297 296 296 295 295 295 294 294 294 294 294 294 293 293 293 292 292 291 291 291 291 291 291 291 291 291
310 310 309 312 315 316 317 316 314 318 319 313 310 313 314 316 316 313 314 315 313 311 310 310 309 307 306 304 303 302 301 301 300 299 298 298 298 299 299 299 299 299 298 298 298 298 298 298 298 299 298 298 298 297 298 298 299 300 300 300 300 301 301 301 301 301 301 300 299 299 299 298 297 296 295 295 295 294 294 294 294 294 293 293 293 293 293 292 292 291 291 291 291 291 291 291 291
308 310 311 314 318 320 322 320 317 319 318 310 307 311 314 315 316 314 315 314 312 310 308 307 306 305 304 302 301 300 299 299 298 297 297 296 297 298 297 297 297 297 297 297 298 298 298 298 297 297 297 297 297 297 297 297 298 299 299 299 299 300 300 300 300 300 300 300 299 299 298 298 297 297 296 296 296 295 294 294 293 293 293 293 293 293 293 292 292 291 291 290 290 290 291 290 290
309 312 313 315 318 321 323 323 322 323 322 314 309 314 317 317 315 313 312 312 310 308 307 305 304 303 302 301 299 299 298 297 297 296 296 296 296 296 296 296 296 296 296 296 296 297 297 297 297 297 297 296 296 296 296 297 297 297 297 298 298 298 299 299 299 300 300 300 299 298 298 298 297 297 297 296 296 295 295 294 293 293 293 293 293 293 292 292 292 291 290 290 290 290 290 290 290
311 312 312 313 316 319 320 322 323 322 322 318 314 315 317 316 314 312 312 312 308 306 304 304 303 301 300 299 298 297 296 296 296 295 295 295 295 295 295 295 295 295 295 295 295 296 296 296 296 296 297 296 296 296 296 296 296 296 296 296 297 297 297 298 298 299 299 299 299 298 298 297 297 297 297 296 296 296 295 294 294 293 293 293 292 292 292 292 291 291 290 290 290 290 290 290 290
312 311 313 314 316 317 316 318 320 318 318 320 319 318 317 317 316 313 313 312 308 305 303 302 301 300 299 298 297 296 295 295 295 294 294 294 295 295 294 294 294 294 294 294 294 294 294 294 295 295 296 296 296 295 295 295 295 295 296 296 296 296 296 297 297 298 298 298 298 297 297 297 297 296 296 296 296 296 295 294 294 293 293 292 292 292 292 292 291 291 290 290 289 289 289 289 289
311 312 315 315 314 314 312 315 318 318 319 321 319 319 319 319 318 313 313 313 308 304 303 301 300 299 298 297 296 295 295 294 294 293 293 294 294 294 293 293 293 293 293 293 293 293 293 293 293 294 294 295 295 295 295 295 295 295 295 295 295 295 296 296 296 297 297 297 297 297 296 296 296 296 296 296 295 295 295 294 294 293 293 292 292 292 292 291 291 291 290 290 290 289 289 289 289
312 314 315 314 315 315 314 315 317 319 321 321 319 319 319 319 319 315 314 312 307 304 302 299 298 298 297 297 296 295 294 294 293 293 293 293 293 293 293 293 293 292 293 293 292 292 292 292 292 293 293 293 293 293 294 294 295 295 295 295 295 294 295 295 295 296 296 296 296 296 296 296 295 295 295 295 295 295 294 294 294 293 293 292 292 292 291 291 291 290 290 290 289 289 289 288 288
310 311 311 311 312 315 315 316 318 320 321 322 322 321 320 319 317 315 311 308 306 304 301 299 298 297 297 296 296 295 294 294 293 293 292 292 292 292 292 292 292 292 292 292 292 292 292 292 292 292 292 292 292 292 292 293 293 293 294 294 295 295 294 294 294 294 294 295 295 295 295 295 295 295 295 295 294 294 294 294 294 293 293 292 292 291 291 291 290 290 290 289 289 289 289 288 288
310 309 310 310 310 313 315 316 317 318 319 321 322 321 322 318 312 309 306 304 303 302 301 299 297 297 296 296 295 295 294 293 293 293 292 292 292 292 292 292 292 292 292 292 292 292 291 291 291 291 292 292 291 291 291 292 292 292 292 292 293 294 294 294 294 293 293 293 294 294 294 294 294 294 294 294 294 294 294 294 293 293 293 292 292 292 291 291 290 290 289 289 289 289 288 288 288
312 311 311 312 312 313 316 317 318 317 317 319 320 320 322 315 306 304 303 301 301 300 299 298 297 296 296 295 295 294 294 294 293 293 293 293 293 292 292 292 292 292 291 291 292 291 291 291 290 290 290 291 290 290 290 291 291 291 291 291 291 292 293 293 294 293 293 293 293 293 293 293 293 293 293 293 293 293 293 293 293 293 293 292 292 292 291 291 290 290 289 289 289 288 288 288 288
Wind_Speed
4 3 3 3 4 3 2 2 2 0 2 4 2 3 0 0 4 4 3 2 1 0 1 2 2 3 2 2 4 6 5 5 5 4 3 2 4 4 16 18 14 20 28 30 26 24 27 27 25 24 22 21 20 19 19 18 18 16 15 14 14 13 13 12 12 12 11 11 11 11 11 11 10 10 9 8 8 7 7 7 7 7 7 8 7 7 7 7 6 4 3 4 3 3 2 1 2
3 3 3 3 4 2 1 1 4 1 3 4 1 2 2 1 3 3 4 6 5 3 1 2 4 5 5 5 5 7 6 7 5 4 2 3 5 5 16 19 15 22 28 31 27 21 23 25 26 25 23 22 21 20 19 18 17 16 16 14 14 14 13 13 12 12 12 12 12 11 11 11 10 9 8 7 7 6 6 7 7 7 7 8 7 6 6 5 4 5 5 4 3 3 3 4 5
2 3 2 1 3 2 1 1 4 3 4 4 2 1 1 2 3 2 4 5 6 3 1 2 3 4 6 7 5 5 4 3 4 3 2 6 4 3 14 20 17 23 28 31 29 20 19 23 27 26 23 23 21 20 19 18 17 17 16 15 15 14 14 13 13 13 12 12 12 12 11 11 10 9 8 7 7 6 6 7 7 7 7 7 6 4 4 3 6 7 6 5 4 5 5 6 6
2 2 1 1 1 1 1 2 3 3 4 3 3 2 2 3 3 3 3 5 5 2 2 2 3 2 6 8 3 3 5 2 3 4 2 3 4 3 13 21 18 23 27 32 28 19 18 22 27 26 24 23 22 21 20 19 17 17 16 16 15 14 15 14 14 13 13 13 13 13 12 11 9 8 7 7 6 6 6 7 7 7 7 6 4 4 3 3 6 8 8 7 6 6 7 7 7
3 4 2 2 2 1 1 1 1 3 4 2 4 1 1 2 4 6 5 6 4 3 4 3 2 2 4 5 2 3 3 1 3 5 3 2 6 6 13 22 19 23 28 30 24 18 19 22 27 26 24 23 22 21 21 20 18 17 16 16 15 14 15 14 14 14 14 14 13 13 11 10 8 7 7 7 6 6 7 7 7 7 7 6 5 4 3 3 6 9 9 9 8 8 8 8 8
4 5 4 2 0 1 1 2 2 4 3 2 6 6 4 2 5 8 8 7 2 3 4 3 3 1 3 3 3 4 3 1 1 5 5 3 6 6 15 23 20 23 27 26 20 17 18 22 28 26 24 23 21 21 21 21 19 18 17 17 15 15 15 14 15 14 15 14 13 12 10 10 8 7 8 8 6 7 9 8 8 9 9 7 6 5 4 4 7 9 9 9 9 9 9 8 8
3 2 3 3 2 1 4 4 4 5 2 1 6 8 9 6 3 7 9 6 1 3 3 3 2 3 4 0 3 6 7 6 2 3 6 5 5 6 17 24 21 23 25 22 18 18 19 23 28 26 24 23 21 22 21 21 20 19 18 17 16 16 16 16 15 15 14 13 12 10 10 10 9 9 9 9 8 8 9 10 10 10 10 8 7 7 7 6 8 9 8 9 8 8 7 7 7
2 1 1 2 2 1 4 4 4 4 1 2 6 8 11 10 5 7 9 4 1 1 3 4 2 4 2 2 3 3 7 10 9 8 7 7 6 7 18 25 22 25 25 19 17 18 21 26 27 26 24 22 22 21 21 21 20 19 19 18 17 17 17 16 15 14 13 11 12 10 11 11 10 10 10 10 10 10 9 10 10 9 10 9 9 9 8 7 7 8 7 7 6 6 5 4 3
2 1 1 2 2 2 3 4 4 3 3 4 6 9 10 9 6 7 8 5 4 3 3 3 4 5 2 1 6 1 3 8 11 12 9 9 7 8 19 26 23 26 27 20 17 18 21 27 27 26 25 23 23 22 21 20 19 19 19 19 17 17 17 16 15 14 13 12 12 11 12 12 11 12 11 11 12 11 10 10 10 9 10 9 10 9 8 8 7 7 6 6 4 3 2 1 1
1 2 1 1 2 3 4 4 3 2 3 4 7 10 10 7 5 5 7 6 3 3 1 1 4 8 4 5 7 1 2 5 7 10 10 10 8 10 19 26 23 26 29 21 20 23 23 27 27 26 25 23 23 22 22 20 19 18 18 19 17 17 17 16 16 15 14 14 11 12 15 14 13 14 14 13 12 12 11 11 11 10 10 10 9 9 9 8 7 6 5 4 3 2 1 1 1
1 1 0 2 2 4 3 3 3 3 3 4 7 8 7 4 4 4 5 5 3 3 2 3 4 9 6 6 5 2 4 7 6 7 9 11 9 12 19 25 24 25 27 21 25 29 25 27 28 27 26 24 24 22 22 21 20 19 19 19 18 18 17 17 18 16 16 15 13 13 15 15 15 16 16 15 13 12 13 12 11 11 11 10 9 9 9 8 7 6 4 3 2 2 1 1 1
2 2 2 3 2 3 3 4 5 6 6 5 4 2 1 2 4 3 4 5 3 5 6 8 2 2 5 5 2 1 4 8 7 8 9 11 10 12 18 23 23 24 24 20 26 30 28 28 28 29 28 26 26 24 23 22 22 21 21 20 19 19 19 19 18 17 17 16 17 15 13 13 15 16 17 16 13 12 13 12 12 11 10 10 10 9 9 8 7 6 4 3 2 2 1 1 2
2 2 3 2 1 2 1 4 4 6 6 3 1 3 2 4 4 3 2 4 3 5 4 8 3 1 6 5 3 4 4 6 8 9 9 10 12 13 18 22 23 24 21 19 26 30 30 29 28 29 29 29 27 26 25 23 23 23 22 21 21 20 20 19 18 19 18 18 19 18 15 15 16 17 17 16 13 12 13 13 12 11 11 11 10 10 9 8 7 5 4 3 2 1 1 2 2
1 1 3 1 0 2 2 4 3 3 4 1 1 3 3 4 2 2 2 5 5 2 2 4 4 2 7 5 4 3 2 3 7 8 9 11 13 14 18 20 21 24 21 21 27 30 32 32 29 27 27 29 27 26 26 25 24 24 23 22 21 20 21 21 20 21 20 20 19 19 19 18 18 17 17 15 13 13 13 13 13 12 12 12 12 12 11 9 7 5 4 3 2 1 1 2 3
1 1 2 2 1 2 3 3 2 3 3 1 1 3 3 3 2 3 4 7 5 2 2 2 4 3 3 4 5 1 4 2 4 7 9 11 13 14 15 14 18 23 24 27 27 28 32 34 33 30 28 27 24 23 23 26 27 25 25 24 23 23 23 22 21 22 21 21 20 20 21 21 20 18 17 16 14 14 14 14 13 13 13 13 13 12 11 9 7 6 5 4 3 2 1 1 2
0 1 1 2 2 2 3 2 1 3 3 1 2 2 3 3 4 3 2 4 6 1 2 4 6 5 3 6 6 3 3 3 3 7 9 10 11 11 10 11 17 22 25 30 31 29 31 34 35 33 32 29 22 21 21 22 27 28 27 26 25 25 25 24 23 23 22 21 22 22 23 22 21 19 18 16 15 15 15 15 15 15 15 14 14 13 11 10 9 8 7 5 4 2 1 0 1
1 2 3 3 3 3 3 4 3 2 3 2 4 4 5 3 4 3 1 3 9 5 4 6 6 7 9 9 5 0 4 4 4 6 8 8 8 8 8 11 15 19 26 32 34 34 34 35 35 29 29 30 26 26 25 23 26 28 27 27 26 26 25 25 24 24 23 23 24 23 24 22 19 18 19 17 16 17 17 17 16 16 16 15 14 13 11 10 9 8 7 5 3 2 1 1 2
2 2 3 4 4 4 4 7 5 1 5 5 2 4 6 6 2 1 2 6 9 10 11 10 9 11 15 13 9 9 8 6 6 8 9 9 8 9 10 12 14 17 24 30 34 37 37 38 37 31 28 32 33 32 32 30 29 28 27 27 27 26 26 25 26 26 25 25 26 25 23 20 19 18 18 18 18 19 18 18 18 17 17 16 15 13 12 11 10 8 6 4 3 2 2 2 2
3 2 3 5 4 2 4 6 5 4 7 8 3 3 5 7 3 0 5 9 7 11 14 11 12 16 18 17 16 15 11 9 9 10 11 12 12 12 11 13 15 17 20 28 35 39 40 39 40 39 35 36 37 35 35 33 31 29 26 26 27 28 27 27 27 28 28 27 28 28 23 21 21 19 20 21 20 20 20 19 19 18 18 17 15 14 13 12 10 8 6 5 4 4 3 3 3
3 2 5 7 6 4 4 7 8 8 8 10 8 2 4 6 3 1 5 10 9 13 15 11 13 15 13 13 14 13 12 11 11 13 14 15 15 14 14 14 17 21 24 26 30 36 41 41 40 41 38 37 38 36 35 34 31 29 26 25 27 27 27 28 28 30 30 30 31 29 24 24 25 22 22 23 22 20 20 20 21 20 18 18 16 15 14 13 11 8 7 6 6 6 5 5 5
2 4 8 6 2 5 7 9 9 7 4 8 8 4 8 5 3 5 6 8 10 13 15 14 14 15 13 9 8 9 10 11 12 14 15 17 17 16 16 17 19 22 24 22 23 34 42 42 41 41 39 37 37 37 35 35 33 30 27 28 29 26 25 28 31 32 33 33 32 30 28 28 27 24 24 24 22 20 20 22 22 21 20 20 18 17 16 14 11 10 9 9 8 8 7 7 6
2 7 11 7 2 5 7 6 5 3 1 5 7 7 8 2 3 9 9 8 11 12 15 15 15 15 14 10 4 5 8 11 12 15 16 18 18 19 18 18 18 19 22 22 26 35 40 43 42 40 40 35 32 33 33 35 35 33 32 32 33 28 23 29 34 34 35 35 33 32 32 30 27 26 26 26 24 22 22 23 23 23 23 22 20 19 17 14 12 12 11 10 10 9 8 8 7
6 8 9 10 7 8 6 1 2 3 4 7 7 7 5 4 9 10 12 15 17 18 19 19 18 17 11 7 5 7 9 11 12 16 18 18 19 21 21 19 19 21 24 28 30 31 34 41 43 40 38 30 27 27 28 33 34 36 36 35 36 31 24 29 36 37 37 37 35 35 33 30 29 29 29 29 28 27 26 26 27 26 25 23 21 20 17 15 14 13 13 12 11 10 9 9 8
7 9 7 8 7 10 9 2 2 3 7 9 6 8 10 13 11 5 11 18 21 22 21 20 21 19 9 7 11 12 12 13 15 19 19 20 23 25 25 23 22 22 26 30 31 28 30 38 42 42 36 28 25 25 27 30 31 36 37 36 38 34 29 30 36 38 39 38 37 36 34 32 31 31 31 31 31 30 30 30 30 28 26 23 22 20 18 16 16 15 14 13 12 12 11 10 10
9 12 8 4 4 9 9 4 5 6 9 8 6 11 19 18 8 8 15 19 20 21 22 20 19 18 12 12 15 14 14 14 17 20 19 21 26 24 24 25 20 20 27 31 30 30 32 36 40 43 40 33 27 24 28 29 30 37 39 38 40 37 32 32 37 40 40 40 38 37 35 34 33 33 33 33 33 32 32 32 31 28 26 24 22 21 19 18 17 17 16 15 14 13 12 12 11
8 11 8 5 8 9 7 6 8 9 7 5 7 16 21 12 5 15 20 19 20 18 21 19 15 16 13 13 14 13 14 14 16 18 17 19 21 21 23 23 20 24 29 28 30 34 34 34 37 41 44 40 31 27 28 29 30 35 35 37 42 38 30 30 38 42 41 41 40 38 37 36 35 34 34 34 34 34 34 33 31 29 27 25 24 22 21 20 19 18 17 17 16 14 14 12 11
1 5 8 9 13 11 6 8 10 8 8 9 11 18 20 5 2 13 12 8 11 12 16 16 11 13 13 11 12 11 13 15 17 16 14 14 14 18 22 20 23 29 29 28 33 36 35 36 37 39 43 42 37 31 29 29 29 31 30 32 38 36 28 30 40 43 42 42 42 40 38 38 37 36 35 36 35 35 35 33 32 31 28 26 25 24 23 21 20 20 19 18 17 15 14 13 12
3 3 9 12 13 13 9 10 11 8 6 9 12 16 18 6 3 16 13 3 4 7 14 15 11 12 12 12 11 9 10 15 16 13 13 14 14 16 19 22 27 30 29 33 36 35 36 37 37 38 41 43 41 35 32 31 30 31 31 28 32 33 28 35 44 44 44 44 43 41 40 39 38 37 37 36 36 36 36 35 33 32 30 28 27 26 24 23 22 20 20 18 17 16 15 14 13
4 3 9 13 12 16 14 12 9 7 5 5 8 10 13 11 12 20 15 4 4 8 14 16 13 12 11 11 10 9 10 13 12 12 15 17 15 15 18 24 29 29 29 34 34 33 35 36 38 39 39 43 45 40 36 34 33 33 32 31 32 30 29 40 46 45 46 45 44 43 41 40 40 38 38 37 37 37 36 36 35 33 32 30 29 27 25 24 23 21 20 19 17 17 16 15 14
5 2 4 10 10 12 8 4 2 4 5 8 7 6 9 11 16 18 7 2 5 9 13 14 12 10 9 9 9 10 11 11 11 14 16 15 13 15 19 24 27 29 30 30 31 33 35 35 38 39 39 43 45 45 42 40 39 35 33 33 31 27 32 43 46 45 46 46 45 44 42 42 40 39 39 38 37 38 37 36 36 35 33 31 30 28 27 25 24 23 22 20 19 18 17 16 15
5 3 2 5 7 7 2 4 3 3 4 10 8 7 10 11 15 13 0 2 5 9 14 14 12 10 9 10 10 12 14 12 15 17 15 11 12 16 20 24 26 29 30 30 32 33 33 35 37 38 40 42 44 47 48 47 45 39 37 36 31 31 38 43 45 46 46 46 46 45 44 43 41 40 40 39 39 39 38 38 37 36 34 33 31 30 29 28 26 25 23 22 21 20 19 17 16
4 4 5 5 5 7 7 3 5 7 2 7 9 6 9 10 13 10 3 2 4 9 15 14 14 15 14 13 12 14 15 16 17 16 13 12 15 18 21 25 26 28 30 31 33 32 32 34 36 38 40 42 43 46 48 49 47 43 42 41 38 39 42 43 44 46 46 47 46 46 45 44 43 42 41 40 40 40 40 39 38 37 36 34 33 33 31 30 28 26 25 24 23 22 20 18 16
4 5 8 6 7 8 7 6 5 6 3 6 11 8 9 9 11 10 2 2 6 11 18 19 18 17 16 15 13 13 14 15 13 11 10 11 15 18 21 23 24 26 28 29 30 31 32 33 34 36 39 41 43 44 45 46 45 43 42 40 40 41 42 43 44 45 46 47 47 47 47 46 45 43 42 42 41 41 41 40 39 38 37 36 35 34 33 31 30 28 27 26 24 23 22 20 17
5 5 7 7 9 9 6 7 3 3 5 8 11 11 13 14 14 16 13 12 14 16 20 21 19 17 16 14 12 12 11 12 10 8 10 12 15 18 19 21 22 23 25 27 28 29 30 30 32 34 36 38 39 40 41 41 41 40 39 38 39 39 41 43 43 44 46 47 48 49 48 47 47 45 44 43 43 43 42 41 40 39 38 38 37 36 34 33 31 29 29 28 26 23 21 20 18
8 4 6 6 7 9 9 9 4 3 7 7 9 13 16 17 16 17 19 18 17 18 19 18 18 19 17 14 13 11 8 9 8 7 11 13 15 16 16 19 20 21 22 23 24 26 27 28 30 32 33 34 35 36 36 36 34 32 33 35 37 38 39 40 42 43 45 47 49 51 51 50 48 48 46 45 45 44 43 42 42 41 40 39 38 37 35 34 33 31 30 29 28 24 21 20 20
7 4 7 9 8 9 11 12 8 6 10 11 13 17 17 16 15 15 18 17 17 21 19 16 17 16 15 15 12 7 5 4 4 6 10 11 13 13 14 15 16 17 18 19 19 21 24 25 26 27 29 31 30 29 30 30 27 25 27 30 33 36 38 40 42 44 44 47 49 50 51 51 49 49 48 47 46 46 45 44 43 43 42 41 40 39 38 37 35 34 32 30 29 26 22 22 21
5 6 9 10 11 12 12 15 10 2 6 11 13 18 19 17 16 15 17 19 20 22 19 17 17 14 14 15 9 3 2 2 2 8 9 10 13 14 14 14 13 14 14 14 14 17 20 21 23 24 26 28 26 24 25 26 24 23 24 27 29 30 34 38 40 43 45 45 47 49 49 49 49 49 49 48 47 46 45 45 44 43 42 42 42 41 40 39 37 35 33 30 29 28 25 24 23
10 9 10 11 10 13 13 14 12 2 3 9 10 17 18 17 19 18 18 21 20 19 17 18 19 17 14 8 3 4 3 1 5 9 7 8 11 14 15 15 13 11 10 11 11 13 15 17 20 22 23 25 26 25 25 26 26 26 25 24 24 23 27 33 34 36 41 42 43 44 46 46 47 48 48 48 48 47 46 45 45 44 43 43 42 42 41 40 38 37 35 31 30 27 25 26 27
10 8 8 9 8 12 12 10 9 2 2 8 10 15 15 17 22 20 18 17 16 16 15 17 19 18 10 5 6 4 4 4 6 6 4 6 10 15 18 18 16 12 10 9 9 10 12 14 17 19 21 24 27 27 28 27 26 28 25 21 20 19 20 27 30 30 35 38 39 40 42 43 45 46 47 48 49 48 48 46 46 45 45 45 44 43 42 41 40 39 38 35 30 24 21 27 32
8 8 8 9 7 9 8 5 2 1 4 9 13 14 13 15 17 13 12 11 13 15 15 18 17 11 6 7 5 4 5 5 4 3 5 7 9 14 17 18 18 15 12 12 10 9 9 11 14 16 18 22 24 26 29 29 26 27 26 24 23 19 17 21 26 29 31 33 35 37 39 41 42 44 46 48 49 50 49 48 48 48 47 47 47 46 45 44 43 42 41 37 33 26 21 27 35
9 8 8 11 11 11 11 7 5 7 8 5 10 12 7 5 3 1 1 4 8 11 14 17 7 5 5 4 2 2 3 2 3 6 7 8 9 13 14 16 17 15 15 18 16 12 10 9 10 12 14 17 21 24 27 27 26 24 23 24 22 20 19 19 20 23 24 28 32 35 38 40 41 43 44 47 49 50 50 50 50 49 49 49 49 48 48 47 45 45 43 40 39 34 27 27 34
8 7 11 16 15 14 15 11 7 8 5 2 7 10 3 2 1 4 3 5 8 9 13 10 4 10 6 5 3 0 1 2 4 6 6 7 10 13 14 16 17 16 20 25 23 18 14 10 9 8 9 13 17 20 22 24 24 21 19 19 19 17 19 19 20 21 23 31 35 36 39 42 44 45 46 47 48 49 50 51 51 51 51 51 51 50 49 49 48 47 46 44 43 39 31 26 30
8 3 7 13 13 12 12 10 5 5 4 2 3 6 6 4 4 6 7 8 11 13 12 4 6 7 5 4 2 1 3 4 5 7 8 9 12 14 16 19 19 20 27 30 27 25 20 14 11 8 6 9 13 16 19 21 21 19 19 20 18 17 17 16 18 21 23 28 31 33 36 39 42 44 46 47 48 49 50 51 51 52 51 51 52 51 50 51 50 50 49 48 47 42 34 27 29
5 1 0 5 7 8 6 5 5 5 6 3 3 5 8 7 3 3 4 7 13 17 11 3 7 7 7 5 3 4 5 7 8 10 12 13 15 16 17 19 20 25 32 33 31 29 25 20 16 11 7 6 10 12 16 19 19 18 19 20 18 18 18 14 14 18 20 22 26 29 31 33 37 40 42 44 46 47 49 50 51 51 51 51 52 52 52 52 51 51 50 50 49 45 41 34 32
2 3 2 1 1 3 2 3 5 3 5 4 4 5 6 8 2 2 2 7 11 11 6 8 10 8 7 6 6 6 8 11 13 13 13 13 16 18 18 19 23 29 34 34 32 30 28 24 21 17 12 8 9 10 12 16 18 19 18 18 18 18 17 15 13 15 17 18 22 26 27 29 33 37 40 42 44 46 47 49 49 49 50 51 52 52 53 53 52 53 52 51 51 48 47 42 34
1 4 3 3 2 1 1 3 3 3 6 5 6 8 7 8 1 3 1 4 5 6 6 8 11 10 9 10 9 10 12 13 14 13 13 14 17 18 18 22 27 30 33 34 34 32 30 28 24 21 17 13 11 11 10 13 16 18 18 17 18 17 15 15 14 13 14 15 18 21 23 25 29 33 38 41 44 46 48 49 49 50 50 51 52 53 53 54 53 53 53 53 53 51 51 48 37
2 4 1 1 2 1 1 2 1 4 7 5 10 13 9 6 1 2 0 1 3 4 4 5 13 13 13 13 12 13 14 12 12 12 13 16 18 19 20 25 28 29 31 34 35 33 31 30 26 22 21 18 14 12 10 11 13 16 17 16 18 18 15 14 14 15 14 14 16 18 19 22 25 30 34 37 41 45 47 48 49 50 50 51 52 53 53 54 53 53 53 52 54 53 52 51 45
1 1 2 3 2 1 2 2 2 5 7 2 5 7 9 8 2 1 2 4 3 2 4 5 12 13 12 13 12 13 12 11 12 11 12 14 16 19 23 25 26 27 28 29 31 31 29 28 26 23 24 24 19 15 12 10 12 14 16 16 17 17 15 15 16 17 15 15 17 16 16 18 21 25 29 34 39 43 45 46 47 48 50 51 52 53 53 53 52 52 52 52 53 54 53 52 50
2 1 1 3 3 2 3 2 2 6 4 1 1 1 6 9 5 6 10 10 4 0 4 8 11 11 11 13 11 11 11 11 11 10 11 11 12 16 21 23 24 24 25 25 26 27 26 25 25 24 24 24 21 17 14 11 11 12 14 15 16 15 15 16 17 18 17 16 17 17 16 17 20 24 29 34 38 42 44 45 47 49 50 51 52 53 53 53 53 52 51 52 53 54 55 54 53
5 4 3 3 3 3 4 3 3 6 2 2 1 1 5 6 4 9 14 8 3 6 8 10 13 13 13 12 11 11 11 11 11 10 11 11 12 15 19 21 21 22 24 25 24 25 24 24 24 25 27 27 25 21 17 14 13 13 13 14 15 14 15 16 17 18 17 17 16 17 18 18 21 27 32 35 38 40 43 45 47 49 49 50 50 52 52 52 53 52 51 52 52 54 55 54 54
5 2 2 3 3 3 5 4 5 7 5 1 2 2 3 3 1 2 5 2 7 10 11 13 13 12 11 11 11 11 12 11 10 10 11 12 14 17 18 18 19 20 22 23 24 24 20 18 19 23 26 28 28 26 22 19 16 14 14 14 14 14 15 16 17 18 17 17 17 18 19 19 23 28 32 35 36 38 41 43 45 47 48 49 50 50 51 51 51 50 50 50 52 53 53 54 55
2 1 1 3 3 4 5 5 5 5 6 4 4 3 4 3 2 4 3 2 10 14 14 13 13 11 10 11 11 11 11 10 9 10 11 13 16 17 16 16 17 18 19 20 20 18 15 16 21 25 24 23 25 25 24 21 18 15 15 15 15 15 15 17 18 19 19 18 17 18 20 21 24 27 30 33 35 37 39 41 43 45 47 48 49 50 50 50 50 50 49 49 50 52 53 54 54
1 2 3 2 0 2 4 4 1 1 6 6 5 6 7 5 5 3 3 7 12 13 13 13 12 12 12 11 10 9 8 8 9 9 10 11 14 14 14 15 15 16 16 16 15 14 16 22 27 28 27 26 26 25 25 25 23 20 17 15 14 14 14 16 17 20 20 19 18 20 21 21 24 27 30 32 34 35 37 38 41 43 45 46 48 49 49 50 49 49 49 50 50 51 52 53 53
3 3 3 1 1 0 2 3 0 2 7 5 6 12 11 6 4 3 7 9 10 10 10 10 10 10 10 9 8 7 7 7 8 9 8 9 10 11 12 12 13 13 13 12 13 16 20 24 25 24 25 26 26 25 25 27 30 29 25 20 17 15 14 14 16 19 20 19 18 19 21 22 25 28 30 32 33 34 35 37 39 41 43 45 46 47 47 48 48 49 49 50 51 50 50 51 52
2 2 1 1 2 3 3 3 2 5 8 5 6 11 9 6 6 3 3 7 8 6 8 9 9 9 8 7 7 7 7 6 7 7 6 7 8 9 10 11 12 13 12 13 15 18 21 22 22 21 21 22 24 26 26 27 30 30 29 26 22 19 16 15 15 17 18 18 18 19 21 24 26 28 30 31 32 33 34 35 37 39 41 43 45 45 46 46 47 48 48 49 49 49 49 50 51
1 2 1 1 2 4 3 2 1 4 6 5 4 6 6 5 3 0 4 7 6 5 7 8 8 7 6 6 6 6 6 5 4 4 4 4 6 7 9 9 10 11 12 14 16 18 19 19 19 18 19 20 22 25 25 26 26 27 28 28 27 25 21 17 15 15 16 17 18 19 21 26 28 29 30 31 31 32 34 35 37 38 40 41 42 43 44 45 46 47 47 48 48 49 50 50 50
3 3 4 3 2 1 1 1 1 3 5 5 4 5 5 2 3 5 7 6 5 6 7 6 5 6 6 5 5 4 4 3 3 3 3 3 5 6 7 8 9 10 12 14 15 16 16 17 18 17 17 18 20 22 23 23 24 24 26 26 26 26 25 23 21 17 15 16 17 18 20 24 27 29 30 31 31 32 34 35 37 38 39 41 41 42 43 44 45 46 46 47 46 46 48 49 48
3 5 6 6 4 2 3 4 4 4 5 5 6 7 4 1 3 5 8 5 4 6 6 5 5 5 5 5 4 4 3 3 4 4 4 5 5 7 7 8 9 10 12 13 13 14 14 15 18 19 18 19 21 22 22 22 21 21 22 23 22 22 22 24 25 24 22 19 18 17 18 20 23 26 28 30 31 33 34 35 37 38 39 40 41 41 42 43 44 44 45 46 47 45 47 48 48
Wind_Direction
335 334 339 341 338 296 294 334 288 151 275 283 292 305 179 124 321 292 312 358 302 70 180 289 192 181 214 308 313 320 303 262 287 295 337 42 290 240 183 187 185 174 179 181 179 181 182 180 176 179 182 184 186 185 185 184 184 186 189 187 185 185 185 185 182 178 177 178 177 177 171 164 160 152 146 139 137 138 136 136 135 139 139 138 136 138 133 127 139 157 194 217 230 257 269 287 324
349 353 3 29 13 304 237 347 288 289 276 288 298 293 31 93 255 285 352 359 343 25 18 272 223 232 278 305 303 293 261 225 266 310 342 300 288 248 195 186 180 175 178 183 180 180 183 182 179 179 183 185 187 185 187 187 186 188 190 188 187 187 185 186 184 181 182 182 180 176 170 165 160 151 147 143 143 137 133 135 133 139 142 142 138 128 118 127 191 226 234 243 258 261 281 306 313
23 19 26 42 31 351 191 231 277 300 294 302 351 78 69 269 259 342 4 344 343 12 280 241 229 249 253 251 262 276 270 211 249 267 263 278 271 247 205 189 181 175 179 184 181 180 183 187 183 179 183 186 187 187 189 189 190 192 191 191 189 187 185 187 186 184 185 183 179 174 169 165 157 151 151 152 152 151 155 149 141 147 150 143 136 136 127 153 221 234 240 250 260 265 285 298 300
56 39 67 258 248 230 235 257 284 288 291 306 334 100 163 287 332 341 337 330 329 302 243 212 209 197 234 257 283 272 271 236 204 218 247 276 229 244 204 195 184 175 182 185 181 181 184 193 188 181 183 186 188 188 190 191 192 194 193 193 191 189 187 187 187 186 185 181 176 173 169 162 157 156 159 166 160 168 183 175 163 159 164 163 151 160 165 165 219 232 239 251 261 273 286 292 294
78 53 92 242 251 284 292 281 271 256 286 338 318 335 180 283 319 312 304 309 301 247 228 215 230 142 232 270 298 276 288 236 158 202 247 303 227 238 200 196 188 178 184 184 182 184 187 196 190 183 184 187 188 188 191 192 193 194 195 194 192 191 188 187 188 187 183 179 175 171 168 164 164 165 173 184 173 179 187 193 199 187 178 186 181 174 166 167 221 236 244 255 265 274 280 284 286
101 68 76 91 66 355 238 249 242 249 283 321 291 306 327 297 301 306 301 302 282 218 221 223 268 284 252 243 223 253 309 313 122 193 220 269 233 230 200 196 191 183 182 183 185 186 191 197 189 184 186 188 189 190 192 193 193 194 196 193 192 191 188 189 188 186 182 180 176 169 171 174 177 180 193 199 189 196 196 191 198 198 192 186 181 180 166 178 227 240 248 255 264 268 271 274 277
162 129 76 100 119 253 253 262 268 269 289 238 274 296 310 313 310 304 304 311 166 173 204 232 298 292 267 210 237 237 246 243 234 211 207 234 234 218 200 195 192 185 181 183 186 187 195 195 186 185 188 188 190 192 192 193 193 193 196 192 191 191 187 189 187 185 182 178 178 180 186 188 192 198 206 212 206 204 205 198 198 200 193 185 178 176 165 180 228 241 247 252 259 262 266 272 277
152 170 14 245 180 226 260 265 271 274 266 235 270 273 289 306 309 295 298 305 276 215 200 220 230 270 271 130 260 218 235 241 237 243 227 235 235 210 197 195 193 186 184 185 187 189 194 191 184 187 188 189 192 193 193 193 193 193 194 191 190 190 188 190 188 184 181 182 188 195 203 206 208 215 220 214 206 197 196 200 201 194 183 180 177 174 176 200 233 240 246 251 256 258 266 273 286
65 11 202 249 222 232 257 263 270 260 247 253 266 260 271 291 292 284 281 274 275 274 224 214 200 243 358 188 258 164 216 250 242 244 241 239 235 213 196 195 195 188 188 187 189 191 190 187 185 188 188 191 193 194 195 193 193 194 192 191 191 190 189 190 189 187 187 193 199 209 215 216 212 220 223 210 203 193 188 189 184 179 176 174 177 189 206 223 236 237 242 245 247 246 256 271 329
72 358 192 217 227 250 254 256 264 236 236 248 269 269 272 280 275 266 268 282 283 266 251 114 207 235 296 292 271 271 225 265 252 247 243 236 228 209 197 197 197 193 194 192 192 191 187 188 187 188 190 193 194 194 194 192 194 195 192 190 192 193 193 195 195 196 200 198 202 218 216 211 206 207 208 206 207 192 187 188 183 181 178 180 195 215 224 228 231 233 231 218 215 202 170 115 68
174 56 238 227 222 259 271 272 272 268 264 269 274 267 272 271 256 249 244 276 273 252 228 141 216 234 256 281 267 253 263 273 253 246 240 229 223 205 199 200 199 197 198 195 193 190 189 190 190 190 191 194 194 195 194 194 195 198 199 195 196 198 200 203 204 205 211 208 207 221 220 217 214 210 210 217 215 194 190 190 188 186 185 199 214 220 221 222 220 219 211 189 188 157 132 100 68
220 139 214 243 241 267 295 294 284 294 291 272 259 185 216 183 202 257 237 272 276 257 230 185 210 236 230 261 260 237 253 258 244 240 235 219 217 205 200 204 202 200 200 198 193 191 191 193 193 192 193 194 195 197 197 199 200 202 206 205 205 206 208 211 212 212 217 216 214 220 222 223 222 218 220 222 210 193 195 193 193 193 197 213 215 214 213 211 206 202 199 182 175 144 112 83 61
248 163 220 245 282 278 288 288 287 302 294 255 192 127 139 190 209 286 253 274 255 263 248 192 197 342 251 274 281 264 235 236 242 238 226 208 209 205 201 205 206 202 200 200 196 193 194 195 196 196 196 197 197 200 202 204 205 208 211 212 214 214 214 215 217 216 216 215 214 215 214 219 218 216 219 216 202 197 202 201 205 201 204 215 210 212 209 203 202 195 192 179 166 134 80 51 41
254 186 253 259 66 267 242 276 279 285 296 72 117 138 181 220 237 273 257 288 257 246 351 191 186 248 261 274 261 251 176 217 238 226 211 203 203 204 203 207 208 204 202 200 197 197 199 200 200 201 201 202 203 204 207 208 208 211 213 212 213 215 213 214 216 215 214 212 209 209 210 216 214 211 214 210 200 203 204 205 210 202 202 211 207 208 206 203 203 194 194 187 178 146 64 35 22
247 175 261 245 194 244 214 255 293 268 287 18 127 129 204 232 195 218 244 292 295 98 30 203 179 237 242 234 269 69 112 219 223 209 201 202 201 203 204 207 208 206 206 203 200 201 202 204 204 205 205 205 206 207 209 210 210 211 212 210 211 213 212 213 215 214 213 209 206 207 209 214 214 213 213 208 203 204 205 204 203 200 203 207 205 206 205 202 199 197 197 190 185 166 98 32 9
263 180 221 250 225 236 207 209 232 251 264 175 123 120 248 216 168 239 265 292 295 145 187 205 189 250 257 238 280 67 145 243 205 199 193 196 199 198 201 206 208 209 210 206 205 206 205 207 207 208 209 209 209 209 210 211 212 212 213 214 214 215 215 215 215 214 213 208 206 209 211 213 214 215 213 208 207 207 207 205 197 199 205 206 206 206 203 201 198 196 193 188 184 168 158 337 333
219 223 233 254 234 228 196 191 200 271 295 222 151 173 250 248 167 234 320 250 266 259 225 214 202 240 246 243 272 273 245 260 208 192 181 188 188 189 200 205 208 212 213 210 210 210 209 210 210 210 211 212 212 213 213 212 214 214 216 218 216 215 214 215 214 213 213 209 209 210 212 212 210 211 210 208 209 210 210 206 198 197 204 207 207 205 201 200 198 195 192 189 186 184 205 258 285
219 224 239 254 252 233 196 211 211 263 292 267 182 173 242 274 249 198 236 234 242 262 259 232 228 240 240 246 255 254 262 250 216 195 184 186 187 192 199 203 206 213 215 214 214 213 213 213 213 213 214 216 216 216 216 216 218 217 217 217 216 213 211 213 213 212 212 210 211 212 210 206 203 203 204 204 206 210 209 206 201 198 204 208 206 203 201 200 197 195 194 194 198 212 228 248 267
228 218 242 248 249 221 190 226 220 228 273 288 281 180 228 271 287 70 264 265 251 265 270 242 236 245 239 239 240 244 247 232 215 206 204 201 201 202 199 200 205 211 213 214 216 215 215 215 216 216 217 218 218 218 219 219 219 218 215 214 214 212 211 213 212 212 212 210 211 211 206 202 203 200 203 207 207 208 208 205 202 201 204 207 206 202 201 200 198 196 196 200 207 214 223 234 248
227 216 248 249 247 239 214 233 230 236 272 289 283 231 242 256 236 218 262 276 270 262 269 256 249 257 249 231 220 224 229 225 218 218 221 218 215 214 208 202 205 213 215 214 216 217 216 216 217 217 218 218 218 219 219 218 217 215 211 212 212 210 211 212 212 213 212 212 214 211 205 207 209 206 211 214 211 208 205 203 203 204 206 206 205 201 201 201 198 196 198 202 208 212 216 224 231
183 200 247 255 241 251 231 224 233 245 275 279 280 288 274 266 188 229 247 273 270 258 261 257 258 273 279 256 206 198 216 223 223 226 229 228 226 223 222 216 215 220 219 214 216 220 219 217 218 218 218 218 219 218 218 217 215 212 210 211 211 207 210 211 213 215 215 216 216 212 209 214 214 210 215 214 208 202 199 200 201 203 205 205 203 200 202 200 196 197 201 204 208 211 213 218 223
210 220 247 257 215 257 248 216 231 236 243 266 267 275 283 305 214 230 227 250 263 264 271 270 270 278 286 285 238 191 218 228 226 228 229 230 230 228 229 227 224 224 221 219 221 225 222 218 218 218 218 218 219 218 217 217 215 213 212 213 212 208 209 212 214 216 217 218 216 214 214 216 213 211 213 209 203 198 195 196 198 201 205 206 202 202 203 198 196 200 203 206 207 210 212 215 219
251 237 240 252 237 247 257 177 182 177 217 251 255 282 300 268 261 242 219 237 252 263 273 278 280 281 284 293 264 229 228 230 229 229 228 228 229 230 230 227 225 225 226 227 227 226 224 221 219 218 217 215 216 216 215 216 216 215 215 215 214 210 210 212 215 216 217 218 217 217 216 215 212 210 212 208 205 202 199 200 201 205 207 207 203 203 202 197 199 201 204 206 207 210 211 215 217
250 257 243 250 248 248 259 246 195 206 238 253 273 300 281 259 265 245 221 238 250 260 268 271 277 279 280 279 265 253 244 238 237 237 232 231 235 237 237 233 230 229 231 234 231 227 226 225 222 219 215 211 212 212 213 215 216 216 215 217 216 214 215 214 215 217 218 219 218 218 216 214 212 211 212 211 209 207 205 206 207 209 209 207 204 202 200 199 202 204 206 206 207 210 210 213 216
225 251 256 250 253 253 261 258 237 243 249 254 276 277 267 264 279 271 250 248 252 258 265 267 270 274 270 266 264 260 254 246 245 245 238 238 243 244 243 239 232 230 234 236 234 230 230 229 225 219 216 214 211 207 212 214 216 218 217 219 218 216 217 215 216 218 218 219 219 219 217 215 214 214 214 212 211 209 209 210 210 211 210 208 204 202 200 202 205 205 206 207 206 208 209 211 214
213 243 268 270 270 269 265 260 243 241 243 222 241 261 265 275 312 277 257 247 253 255 262 266 264 268 267 260 259 256 255 251 249 249 242 240 243 243 245 241 232 234 238 236 235 235 233 231 228 223 219 219 214 207 210 213 215 217 218 221 220 218 217 214 216 218 218 219 219 219 219 217 217 216 216 214 211 211 211 212 211 211 211 208 205 203 202 203 207 208 206 206 206 207 209 211 213
185 260 287 276 274 277 251 255 253 240 243 215 223 259 266 277 49 273 260 223 245 251 259 264 256 261 264 258 256 251 252 251 251 253 250 243 235 237 242 238 234 240 240 236 238 238 235 232 231 227 222 219 217 212 210 211 212 213 215 219 219 218 216 214 217 218 218 220 220 220 220 219 220 219 218 216 214 212 212 212 212 212 212 209 205 205 204 204 207 209 207 206 206 207 210 211 213
11 324 295 277 276 279 245 243 250 231 240 213 217 257 268 263 204 255 261 189 213 255 265 267 256 256 261 261 261 253 249 251 251 250 249 245 235 234 237 238 243 244 240 241 242 238 236 234 232 230 225 221 220 216 214 213 211 212 213 212 215 216 215 217 218 218 219 221 222 222 221 221 221 221 221 220 216 214 214 213 213 213 212 209 207 206 206 206 207 209 209 207 206 208 210 212 213
325 310 291 287 287 285 264 246 238 210 216 175 192 252 263 242 231 247 256 233 223 253 266 270 265 261 264 266 266 260 254 251 248 243 244 244 239 239 243 248 252 249 247 249 245 239 238 235 233 231 227 224 222 219 217 217 214 215 215 212 215 214 214 218 219 219 220 221 223 223 223 222 222 222 222 222 218 216 215 215 214 214 212 210 208 207 207 207 207 208 208 207 207 209 211 212 213
278 256 280 293 288 284 269 225 203 202 191 154 174 260 268 242 246 253 249 186 235 248 260 268 267 263 263 264 267 267 263 254 246 245 246 243 243 249 254 257 258 255 253 252 247 243 240 236 233 230 226 226 224 221 220 222 221 218 217 216 215 213 215 219 219 221 222 222 224 224 224 223 224 223 223 222 220 218 218 217 216 215 213 211 209 208 207 208 208 207 206 205 206 207 210 211 211
274 277 230 271 271 276 270 135 146 239 188 161 191 260 272 266 270 270 119 115 256 263 265 269 270 269 264 260 261 266 267 260 255 257 257 256 257 256 258 260 260 257 254 251 250 248 242 237 235 230 227 227 225 224 223 225 224 221 220 218 216 218 221 221 220 221 223 224 225 225 224 224 224 224 224 223 220 219 219 218 217 216 215 212 209 209 207 208 208 207 205 204 204 205 208 209 209
251 271 254 232 234 262 280 257 212 241 226 170 199 252 268 262 273 279 73 103 253 271 273 273 273 272 269 265 261 263 268 266 266 272 273 267 266 262 261 262 259 256 254 252 252 249 241 238 237 233 230 228 226 227 226 225 225 224 225 224 224 227 225 222 221 222 224 225 225 225 225 224 224 224 225 224 221 219 219 219 219 218 216 212 210 209 208 208 207 206 205 205 204 203 205 206 207
222 234 260 254 254 271 288 287 243 217 184 197 217 253 275 262 274 281 264 237 262 276 280 279 277 275 271 267 261 258 266 273 278 286 281 270 267 265 263 263 262 259 257 254 251 248 242 238 237 235 232 230 228 228 226 225 225 226 228 227 227 228 226 223 223 224 224 225 225 225 225 225 225 225 225 223 221 220 220 220 220 219 217 213 211 210 208 208 208 207 206 205 204 203 203 204 204
234 217 245 253 256 270 286 287 297 163 188 221 228 241 260 265 278 284 281 280 279 278 279 281 280 277 272 269 265 262 266 278 288 293 286 280 271 267 266 266 267 264 261 257 252 249 245 239 238 236 233 230 228 227 226 225 225 226 227 227 228 228 227 225 224 225 225 225 225 226 227 226 225 225 224 223 222 222 221 221 220 219 216 213 211 210 208 209 209 208 206 204 203 201 201 202 202
260 250 262 273 251 247 261 268 296 282 250 251 249 248 257 263 267 275 279 281 279 274 273 276 276 275 277 277 272 272 276 282 296 301 288 281 275 274 275 274 273 267 261 259 254 249 246 241 239 237 232 229 228 226 225 224 223 223 224 226 228 228 228 227 226 226 226 226 227 227 228 227 225 225 224 223 222 221 221 220 220 219 216 212 211 209 208 208 208 207 205 204 202 200 199 199 201
285 299 280 285 278 260 263 267 269 281 279 270 265 268 274 276 271 272 279 282 278 273 272 273 272 274 279 277 276 288 299 305 325 298 282 281 288 294 296 293 287 277 267 260 254 248 246 242 240 238 233 229 225 222 221 219 216 216 219 222 225 227 227 228 228 228 228 228 228 228 228 227 225 225 224 223 222 221 220 220 219 218 215 212 210 209 209 210 209 206 204 204 201 199 200 200 200
314 287 274 273 278 276 274 277 274 244 275 271 267 275 281 283 280 275 277 278 271 270 274 276 276 276 273 273 286 339 2 20 321 276 277 291 304 314 318 319 311 297 284 269 256 251 249 243 239 238 235 229 222 217 216 214 209 208 213 216 220 223 224 227 228 228 229 229 230 229 228 227 225 225 224 222 221 221 219 219 218 216 214 212 212 211 211 212 211 207 204 203 201 199 199 200 196
274 267 276 273 270 275 273 277 283 279 267 272 268 276 283 285 281 271 264 266 269 273 277 279 278 273 269 280 3 49 50 25 277 277 291 313 326 341 348 351 345 328 310 295 277 264 256 247 241 239 236 231 225 221 219 218 215 214 216 217 219 219 223 226 227 228 230 230 231 230 228 227 226 225 224 223 221 220 218 217 217 216 215 213 212 213 213 213 211 208 203 200 199 199 200 199 191
263 261 272 273 273 282 276 264 275 301 264 283 289 288 287 279 273 269 261 259 265 270 267 266 268 267 276 9 40 13 342 294 279 295 335 348 354 6 10 9 2 352 344 330 310 289 269 255 246 239 235 234 230 227 225 224 222 223 222 222 221 220 225 230 229 230 232 232 232 231 230 229 228 226 225 223 221 220 219 218 218 217 216 215 213 212 212 213 211 208 205 200 196 194 200 201 194
246 246 263 273 272 278 274 250 275 0 268 288 301 291 280 269 262 262 266 258 256 262 259 257 261 274 321 17 10 312 294 273 289 358 24 16 17 20 17 12 9 12 14 6 352 329 299 274 261 248 239 237 234 232 231 228 226 227 226 226 227 226 230 235 235 234 235 234 233 233 232 230 229 228 227 225 222 221 221 220 219 218 218 217 214 213 212 212 211 209 207 201 195 191 195 202 199
238 228 246 266 266 264 269 282 333 312 273 287 310 295 278 261 235 134 282 244 252 260 256 256 261 54 47 52 52 288 273 288 16 39 34 23 23 25 20 11 11 20 23 16 9 357 337 313 288 267 250 243 239 238 236 230 226 227 225 227 230 233 236 236 235 233 232 234 235 234 234 232 231 230 229 228 225 224 222 222 221 220 219 217 215 214 213 213 212 211 207 203 201 198 195 198 200
258 214 222 250 266 272 276 293 328 308 275 45 343 315 296 163 115 3 329 267 264 251 244 257 40 66 68 82 93 238 305 12 36 34 23 20 23 23 20 14 11 16 22 20 18 14 4 351 327 296 264 251 246 243 238 231 225 223 218 217 220 224 230 229 226 226 226 231 234 233 235 234 232 231 230 230 228 225 224 223 222 221 220 218 216 215 214 214 213 212 210 207 207 205 199 194 197
273 218 215 244 263 271 276 294 309 293 294 31 7 308 287 257 251 285 280 263 265 256 248 277 47 56 56 72 90 69 60 63 57 41 24 20 24 19 17 18 15 17 23 24 23 20 16 10 359 336 292 262 255 248 239 230 223 220 218 219 219 221 227 229 227 228 229 233 233 232 233 234 232 231 230 230 229 227 226 224 223 222 221 220 218 215 215 216 215 214 214 212 210 207 202 197 198
271 49 194 238 254 262 263 280 264 274 315 306 186 234 276 282 257 249 262 249 252 256 263 1 57 62 67 76 72 63 66 60 49 40 26 17 19 17 15 19 21 25 29 29 25 21 19 16 11 2 341 297 275 260 244 234 224 220 222 224 227 231 235 240 237 234 234 234 234 233 233 233 233 232 230 230 230 228 227 226 225 223 221 221 219 217 216 217 217 217 216 214 212 208 206 204 203
284 65 54 112 256 271 229 253 260 276 315 285 184 182 266 285 263 166 260 250 249 267 309 29 49 58 71 67 52 48 52 49 43 39 30 22 21 19 18 22 25 28 30 30 28 25 23 21 18 13 3 340 307 284 257 245 235 227 226 226 231 237 240 245 247 243 239 236 236 235 233 234 234 233 231 231 230 229 229 228 227 225 223 222 221 220 219 219 219 219 217 215 212 210 210 210 207
103 114 100 88 94 72 156 251 280 275 280 263 175 174 255 292 278 154 240 270 280 330 8 54 66 66 63 49 31 33 42 41 40 41 36 31 28 23 24 29 29 28 28 31 32 30 28 25 24 20 12 1 337 314 280 260 248 238 234 231 235 240 241 244 247 244 239 235 236 235 232 232 234 234 232 231 231 230 230 229 228 227 226 225 224 223 222 221 221 221 220 218 216 214 214 212 210
127 152 125 109 169 116 180 238 299 270 270 233 176 186 225 282 338 168 132 316 310 348 351 69 77 67 52 43 31 36 45 43 40 38 32 29 25 21 25 30 30 27 26 29 31 30 29 27 26 24 20 13 358 338 309 279 264 252 245 241 242 244 244 245 247 246 240 234 233 232 229 230 233 235 234 232 232 232 231 230 229 228 227 226 226 225 224 223 222 222 221 221 219 217 216 215 214
127 134 335 292 244 205 207 183 151 249 265 211 169 190 217 237 253 7 349 323 279 252 299 6 61 63 50 49 43 41 47 46 41 35 28 23 17 17 23 28 28 26 24 24 24 25 25 23 24 26 25 21 14 359 336 303 283 271 263 259 257 254 249 247 249 249 244 238 236 233 228 228 230 233 234 233 234 234 232 230 229 228 228 227 226 226 225 225 224 223 222 221 221 219 218 217 216
124 115 307 283 292 288 241 222 209 245 265 53 50 272 233 241 253 268 282 296 294 130 352 20 60 70 59 55 51 45 44 42 38 33 27 23 18 19 21 24 25 23 22 21 19 21 21 19 22 27 27 25 22 13 359 335 309 294 285 277 272 268 262 257 255 253 248 243 240 236 230 228 229 232 234 235 236 236 233 230 230 229 228 228 228 227 226 226 225 224 224 223 222 221 220 219 219
166 172 175 205 255 279 267 270 267 266 282 77 74 246 249 261 256 248 259 275 1 45 52 65 76 76 68 60 52 46 43 39 35 31 28 24 23 24 24 24 24 22 21 20 18 19 18 16 20 27 28 28 27 22 13 1 340 321 310 297 286 279 273 268 265 261 256 249 242 237 235 234 235 239 241 241 241 239 236 233 232 231 230 229 229 228 227 227 226 225 225 224 224 224 223 222 222
185 178 156 207 219 246 270 268 265 279 290 161 146 182 244 274 61 232 256 328 41 52 73 82 76 71 71 64 51 44 40 35 31 30 31 27 26 27 26 25 25 24 23 22 20 18 14 12 20 29 30 28 29 26 21 14 1 345 332 319 305 293 283 278 274 269 264 258 250 244 241 240 242 246 247 247 245 243 240 237 234 233 232 231 230 229 228 228 227 226 226 226 226 225 225 225 225
222 86 105 245 218 206 248 254 244 289 302 257 199 215 250 268 291 264 250 66 62 61 65 67 62 59 59 54 47 40 34 29 28 30 30 28 29 28 27 26 26 26 26 25 21 13 7 15 27 32 30 27 27 27 26 21 11 360 350 338 322 308 297 288 281 276 270 264 258 254 251 248 249 251 251 251 250 247 245 241 238 236 234 233 232 231 229 228 228 227 227 227 227 227 227 227 227
141 158 201 230 179 185 241 262 216 277 281 261 237 254 262 269 280 256 137 83 70 65 59 58 55 51 51 50 45 39 36 30 30 34 30 27 28 28 28 29 28 26 26 24 18 11 16 25 30 29 28 27 25 25 27 26 24 18 9 356 338 322 307 295 288 282 277 272 266 263 260 257 256 257 255 254 254 251 247 244 242 240 237 235 234 232 231 230 229 228 228 228 228 228 228 228 228
148 198 208 151 29 126 237 261 172 211 251 256 256 266 272 276 269 159 114 86 68 60 58 60 55 52 56 57 51 44 42 36 34 37 32 28 28 25 26 28 28 27 25 20 16 18 26 30 30 27 25 25 25 25 27 28 31 30 24 15 0 345 330 315 303 292 285 279 273 270 267 264 263 263 261 259 257 253 249 246 244 242 240 238 236 234 233 231 230 229 229 229 230 229 229 229 229
184 244 266 92 233 227 198 215 209 229 248 249 248 263 271 264 252 226 107 81 78 64 53 54 48 50 54 54 54 48 43 38 34 33 28 27 27 24 25 25 24 23 19 17 19 23 28 29 29 28 26 25 26 29 30 30 32 33 31 27 18 7 353 337 324 310 298 289 284 282 278 276 273 270 266 263 259 255 251 249 246 243 242 240 238 236 234 232 231 230 230 230 230 229 229 230 230
60 286 292 86 243 240 203 189 192 231 250 252 239 251 261 268 271 127 73 70 80 71 61 58 49 51 51 48 51 44 41 40 31 30 25 21 22 23 25 24 21 19 16 17 20 22 26 25 23 23 24 24 26 28 29 29 30 31 31 32 30 25 17 4 349 329 312 304 302 298 292 289 284 277 272 268 262 257 253 251 248 246 243 241 239 237 235 233 231 231 230 230 230 229 229 230 230
182 213 215 197 199 238 267 254 214 231 252 251 246 246 242 303 15 90 100 82 74 72 72 67 52 52 53 49 50 44 46 43 29 31 26 20 19 18 19 19 18 20 21 22 22 22 23 21 20 19 17 18 20 23 25 25 26 27 27 29 30 30 28 25 18 3 340 324 318 311 302 297 290 283 278 272 266 261 257 253 250 247 244 242 240 238 235 233 232 231 231 231 231 230 230 230 229
204 210 208 209 198 196 255 243 200 214 240 232 249 257 228 89 34 93 111 110 102 93 90 83 62 50 49 47 44 42 40 34 26 22 18 14 12 9 10 11 12 15 17 18 17 18 17 17 18 17 16 15 16 18 20 20 20 20 21 23 24 25 26 28 27 22 11 355 339 325 312 302 294 288 284 278 271 265 260 256 252 249 246 244 242 240 237 235 233 231 230 231 231 230 231 230 229